CCA917 ZSSS-VHHX

Flight info

Callsign CCA917
Flight time 1h 54m
Altitude 36100
Route NXD W131 AKDIM A470 MAGOG
Aircraft L101/H-SDFGHIRWXY/S

Departure

Time 2026-05-08 11:49
Airport Shanghai Hongqiao International Airport (ZSSS)

Arrival

Time 2026-05-08 13:44
Airport Hong Kong International Airport Kai Tak (VHHX)
Time Latitude Longitude Altitude Speed Heading
2026-05-08 11:23 31.19823 121.34195 24 ft 0 kts 177°
2026-05-08 11:38 31.19827 121.34194 28 ft 3 kts 177°
2026-05-08 11:38 31.19853 121.34193 28 ft 4 kts 177°
2026-05-08 11:38 31.19879 121.34192 27 ft 3 kts 177°
2026-05-08 11:38 31.19901 121.34195 29 ft 3 kts 225°
2026-05-08 11:39 31.19911 121.34221 28 ft 4 kts 265°
2026-05-08 11:39 31.19912 121.34235 29 ft 1 kts 268°
2026-05-08 11:39 31.19912 121.34236 29 ft 0 kts 268°
2026-05-08 11:42 31.19912 121.34234 29 ft 1 kts 268°
2026-05-08 11:42 31.19911 121.34208 29 ft 5 kts 268°
2026-05-08 11:42 31.19909 121.34148 27 ft 9 kts 268°
2026-05-08 11:42 31.19906 121.34060 27 ft 12 kts 267°
2026-05-08 11:43 31.19895 121.33956 27 ft 14 kts 258°
2026-05-08 11:43 31.19888 121.33838 27 ft 15 kts 267°
2026-05-08 11:43 31.19883 121.33705 27 ft 17 kts 267°
2026-05-08 11:43 31.19877 121.33565 26 ft 15 kts 267°
2026-05-08 11:44 31.19872 121.33470 26 ft 9 kts 257°
2026-05-08 11:44 31.19827 121.33437 25 ft 8 kts 182°
2026-05-08 11:44 31.19757 121.33440 26 ft 12 kts 177°
2026-05-08 11:44 31.19663 121.33446 24 ft 15 kts 177°
2026-05-08 11:45 31.19550 121.33451 24 ft 17 kts 177°
2026-05-08 11:45 31.19420 121.33460 25 ft 20 kts 178°
2026-05-08 11:45 31.19279 121.33466 24 ft 21 kts 177°
2026-05-08 11:45 31.19130 121.33475 25 ft 22 kts 178°
2026-05-08 11:46 31.18977 121.33483 26 ft 23 kts 177°
2026-05-08 11:46 31.18812 121.33491 25 ft 24 kts 177°
2026-05-08 11:46 31.18667 121.33499 26 ft 19 kts 176°
2026-05-08 11:46 31.18538 121.33506 25 ft 18 kts 177°
2026-05-08 11:47 31.18435 121.33512 25 ft 11 kts 177°
2026-05-08 11:47 31.18380 121.33514 27 ft 7 kts 185°
2026-05-08 11:47 31.18354 121.33480 25 ft 6 kts 256°
2026-05-08 11:47 31.18352 121.33445 26 ft 4 kts 269°
2026-05-08 11:48 31.18350 121.33399 24 ft 8 kts 268°
2026-05-08 11:48 31.18364 121.33333 27 ft 9 kts 309°
2026-05-08 11:48 31.18400 121.33322 28 ft 0 kts 358°
2026-05-08 11:49 31.18498 121.33317 28 ft 46 kts 357°
2026-05-08 11:49 31.19121 121.33285 24 ft 130 kts 360°
2026-05-08 11:49 31.20208 121.33204 436 ft 164 kts 356°
2026-05-08 11:49 31.21325 121.33076 1398 ft 163 kts 356°
2026-05-08 11:50 31.22494 121.32931 1784 ft 171 kts 356°
2026-05-08 11:50 31.23708 121.32782 2082 ft 186 kts 357°
2026-05-08 11:50 31.25013 121.32257 2021 ft 220 kts 324°
2026-05-08 11:50 31.25974 121.30737 2145 ft 248 kts 288°
2026-05-08 11:51 31.26160 121.28681 2494 ft 264 kts 263°
2026-05-08 11:51 31.25752 121.26577 2928 ft 272 kts 250°
2026-05-08 11:51 31.25054 121.24594 3936 ft 256 kts 244°
2026-05-08 11:51 31.24285 121.22751 4796 ft 251 kts 242°
2026-05-08 11:52 31.23476 121.20894 5265 ft 262 kts 242°
2026-05-08 11:52 31.22622 121.18952 5688 ft 275 kts 242°
2026-05-08 11:52 31.21728 121.16910 6095 ft 292 kts 243°
2026-05-08 11:52 31.20789 121.14755 6705 ft 298 kts 243°
2026-05-08 11:53 31.19855 121.12606 7496 ft 294 kts 243°
2026-05-08 11:53 31.18942 121.10501 8426 ft 286 kts 244°
2026-05-08 11:53 31.18048 121.08441 9218 ft 285 kts 244°
2026-05-08 11:53 31.17143 121.06351 9773 ft 292 kts 244°
2026-05-08 11:54 31.16220 121.04217 10311 ft 296 kts 244°
2026-05-08 11:54 31.15287 121.02063 10951 ft 296 kts 244°
2026-05-08 11:54 31.14363 120.99930 11635 ft 293 kts 244°
2026-05-08 11:54 31.13456 120.97838 12294 ft 293 kts 244°
2026-05-08 11:55 31.12534 120.95709 12816 ft 297 kts 245°
2026-05-08 11:55 31.11590 120.93529 13218 ft 305 kts 245°
2026-05-08 11:55 31.10624 120.91293 13642 ft 311 kts 245°
2026-05-08 11:55 31.09648 120.89037 14194 ft 311 kts 245°
2026-05-08 11:56 31.08678 120.86799 14818 ft 307 kts 245°
2026-05-08 11:56 31.07721 120.84593 15462 ft 303 kts 245°
2026-05-08 11:56 31.06763 120.82386 15874 ft 308 kts 245°
2026-05-08 11:56 31.05785 120.80130 16246 ft 314 kts 245°
2026-05-08 11:57 31.04791 120.77830 16589 ft 320 kts 245°
2026-05-08 11:57 31.03781 120.75497 17046 ft 322 kts 245°
2026-05-08 11:57 31.02775 120.73177 17679 ft 317 kts 245°
2026-05-08 11:57 31.01800 120.70939 18664 ft 300 kts 245°
2026-05-08 11:58 31.00871 120.68816 19371 ft 291 kts 245°
2026-05-08 11:58 30.99945 120.66696 19664 ft 298 kts 246°
2026-05-08 11:58 30.99000 120.64518 19716 ft 311 kts 246°
2026-05-08 11:59 30.97010 120.59916 20274 ft 319 kts 246°
2026-05-08 11:59 30.96015 120.57626 20835 ft 314 kts 246°
2026-05-08 11:59 30.95033 120.55378 21464 ft 307 kts 246°
2026-05-08 11:59 30.94061 120.53152 21827 ft 310 kts 246°
2026-05-08 12:00 30.93076 120.50890 22053 ft 316 kts 246°
2026-05-08 12:00 30.92076 120.48587 22266 ft 322 kts 246°
2026-05-08 12:00 30.91031 120.46262 22541 ft 326 kts 240°
2026-05-08 12:00 30.89539 120.44227 22761 ft 338 kts 225°
2026-05-08 12:01 30.87632 120.42600 23235 ft 337 kts 221°
2026-05-08 12:01 30.85799 120.40980 23856 ft 327 kts 226°
2026-05-08 12:01 30.84099 120.39233 24150 ft 327 kts 228°
2026-05-08 12:01 30.82416 120.37476 24284 ft 334 kts 226°
2026-05-08 12:02 30.80601 120.35740 24436 ft 341 kts 224°
2026-05-08 12:02 30.78691 120.34072 24624 ft 346 kts 222°
2026-05-08 12:02 30.76728 120.32439 24976 ft 344 kts 221°
2026-05-08 12:02 30.74784 120.30841 25465 ft 338 kts 222°
2026-05-08 12:03 30.72879 120.29271 25899 ft 334 kts 222°
2026-05-08 12:03 30.70978 120.27690 26077 ft 339 kts 223°
2026-05-08 12:03 30.69046 120.26080 26171 ft 345 kts 222°
2026-05-08 12:03 30.67072 120.24441 26230 ft 352 kts 223°
2026-05-08 12:04 30.65065 120.22791 26448 ft 354 kts 223°
2026-05-08 12:04 30.63062 120.21155 26890 ft 348 kts 223°
2026-05-08 12:04 30.61134 120.19589 27527 ft 338 kts 223°
2026-05-08 12:04 30.59221 120.18031 27922 ft 335 kts 223°
2026-05-08 12:05 30.57298 120.16447 27997 ft 342 kts 224°
2026-05-08 12:05 30.55344 120.14827 28029 ft 349 kts 223°
2026-05-08 12:05 30.51324 120.11524 28364 ft 355 kts 223°
2026-05-08 12:06 30.49316 120.09893 28824 ft 349 kts 223°
2026-05-08 12:06 30.47347 120.08299 29370 ft 342 kts 223°
2026-05-08 12:06 30.45395 120.06720 29666 ft 341 kts 223°
2026-05-08 12:06 30.43394 120.05231 30010 ft 342 kts 220°
2026-05-08 12:07 30.41363 120.03861 30274 ft 344 kts 219°
2026-05-08 12:07 30.39280 120.02471 30374 ft 347 kts 219°
2026-05-08 12:07 30.35039 119.99574 30393 ft 359 kts 219°
2026-05-08 12:08 30.32873 119.98110 30610 ft 360 kts 219°
2026-05-08 12:08 30.30711 119.96672 30976 ft 355 kts 219°
2026-05-08 12:08 30.28589 119.95271 31425 ft 348 kts 219°
2026-05-08 12:08 30.26505 119.93894 31873 ft 341 kts 220°
2026-05-08 12:09 30.24455 119.92531 32138 ft 339 kts 220°
2026-05-08 12:09 30.22413 119.91162 32388 ft 339 kts 220°
2026-05-08 12:09 30.20371 119.89796 32622 ft 340 kts 220°
2026-05-08 12:09 30.18321 119.88425 32796 ft 341 kts 220°
2026-05-08 12:10 30.16260 119.87052 32971 ft 343 kts 220°
2026-05-08 12:10 30.14209 119.85688 33144 ft 346 kts 220°
2026-05-08 12:10 30.12097 119.84278 33342 ft 354 kts 220°
2026-05-08 12:10 30.09946 119.82843 33505 ft 358 kts 220°
2026-05-08 12:11 30.07783 119.81412 33695 ft 358 kts 220°
2026-05-08 12:11 30.05620 119.79985 33858 ft 357 kts 220°
2026-05-08 12:11 30.03473 119.78555 34042 ft 356 kts 221°
2026-05-08 12:11 30.01330 119.77119 34194 ft 357 kts 221°
2026-05-08 12:12 29.99180 119.75676 34312 ft 359 kts 221°
2026-05-08 12:12 29.97018 119.74223 34428 ft 360 kts 221°
2026-05-08 12:12 29.94849 119.72764 34535 ft 362 kts 221°
2026-05-08 12:12 29.92694 119.71315 34650 ft 362 kts 221°
2026-05-08 12:13 29.90517 119.69852 34767 ft 364 kts 221°
2026-05-08 12:13 29.88296 119.68420 34862 ft 371 kts 215°
2026-05-08 12:13 29.85783 119.67453 34967 ft 392 kts 203°
2026-05-08 12:13 29.83036 119.66987 35086 ft 402 kts 198°
2026-05-08 12:14 29.80234 119.66681 35197 ft 405 kts 197°
2026-05-08 12:14 29.77424 119.66398 35328 ft 406 kts 197°
2026-05-08 12:14 29.74598 119.66135 35436 ft 408 kts 197°
2026-05-08 12:14 29.71765 119.65875 35562 ft 409 kts 197°
2026-05-08 12:15 29.68917 119.65615 35676 ft 411 kts 197°
2026-05-08 12:15 29.66062 119.65372 35797 ft 413 kts 196°
2026-05-08 12:15 29.63209 119.65221 35913 ft 419 kts 193°
2026-05-08 12:15 29.60283 119.65165 36033 ft 420 kts 194°
2026-05-08 12:16 29.57363 119.65078 36143 ft 419 kts 194°
2026-05-08 12:16 29.54451 119.64940 36269 ft 418 kts 195°
2026-05-08 12:16 29.48571 119.64530 36323 ft 433 kts 196°
2026-05-08 12:17 29.45505 119.64295 36324 ft 450 kts 195°
2026-05-08 12:17 29.42317 119.64070 36325 ft 466 kts 194°
2026-05-08 12:17 29.39025 119.63860 36320 ft 482 kts 194°
2026-05-08 12:17 29.35628 119.63655 36317 ft 495 kts 193°
2026-05-08 12:18 29.28707 119.63264 36308 ft 497 kts 193°
2026-05-08 12:18 29.21783 119.62865 36316 ft 499 kts 193°
2026-05-08 12:19 29.14837 119.62443 36319 ft 500 kts 193°
2026-05-08 12:19 29.07889 119.62022 36284 ft 501 kts 193°
2026-05-08 12:20 29.02100 119.61664 36310 ft 498 kts 193°
2026-05-08 12:20 28.95154 119.61232 36319 ft 500 kts 193°
2026-05-08 12:21 28.87066 119.60726 36322 ft 501 kts 193°
2026-05-08 12:21 28.81221 119.60361 36309 ft 505 kts 193°
2026-05-08 12:22 28.74184 119.59927 36321 ft 506 kts 193°
2026-05-08 12:22 28.67194 119.59499 36322 ft 506 kts 193°
2026-05-08 12:23 28.60159 119.59062 36317 ft 506 kts 193°
2026-05-08 12:23 28.53114 119.58624 36317 ft 508 kts 192°
2026-05-08 12:24 28.46046 119.58192 36318 ft 508 kts 192°
2026-05-08 12:24 28.38980 119.57802 36314 ft 509 kts 192°
2026-05-08 12:25 28.31909 119.57412 36291 ft 509 kts 192°
2026-05-08 12:25 28.24815 119.57017 36304 ft 510 kts 192°
2026-05-08 12:26 28.17779 119.56628 36305 ft 510 kts 192°
2026-05-08 12:26 28.10697 119.56253 36300 ft 511 kts 191°
2026-05-08 12:27 28.03556 119.56101 36284 ft 515 kts 189°
2026-05-08 12:27 27.96390 119.56007 36289 ft 515 kts 190°
2026-05-08 12:28 27.89227 119.55917 36290 ft 515 kts 189°
2026-05-08 12:28 27.82051 119.55881 36285 ft 515 kts 189°
2026-05-08 12:29 27.74873 119.55837 36284 ft 515 kts 189°
2026-05-08 12:29 27.67683 119.55790 36285 ft 518 kts 189°
2026-05-08 12:30 27.60493 119.55751 36289 ft 516 kts 189°
2026-05-08 12:30 27.53327 119.55712 36278 ft 514 kts 189°
2026-05-08 12:31 27.46165 119.55670 36282 ft 514 kts 189°
2026-05-08 12:31 27.39008 119.55647 36279 ft 515 kts 189°
2026-05-08 12:32 27.31838 119.55637 36279 ft 515 kts 189°
2026-05-08 12:32 27.24719 119.55620 36271 ft 514 kts 189°
2026-05-08 12:33 27.17566 119.55575 36281 ft 514 kts 189°
2026-05-08 12:33 27.10410 119.55524 36282 ft 514 kts 189°
2026-05-08 12:34 27.03251 119.55479 36250 ft 514 kts 189°
2026-05-08 12:34 26.96089 119.55434 36281 ft 514 kts 188°
2026-05-08 12:35 26.88927 119.55388 36285 ft 514 kts 188°
2026-05-08 12:35 26.81763 119.55343 36281 ft 514 kts 188°
2026-05-08 12:36 26.74609 119.55296 36270 ft 514 kts 188°
2026-05-08 12:36 26.67499 119.55251 36278 ft 514 kts 188°
2026-05-08 12:37 26.60347 119.55206 36281 ft 514 kts 188°
2026-05-08 12:37 26.53197 119.55158 36283 ft 514 kts 188°
2026-05-08 12:38 26.46021 119.55112 36275 ft 515 kts 188°
2026-05-08 12:38 26.38852 119.55064 36281 ft 515 kts 188°
2026-05-08 12:39 26.31733 119.54988 36275 ft 515 kts 188°
2026-05-08 12:39 26.24568 119.54902 36282 ft 515 kts 187°
2026-05-08 12:40 26.17699 119.53655 36213 ft 487 kts 214°
2026-05-08 12:40 26.14844 119.51738 36279 ft 474 kts 223°
2026-05-08 12:40 26.12195 119.49564 36307 ft 474 kts 223°
2026-05-08 12:41 26.06733 119.45393 36277 ft 476 kts 220°
2026-05-08 12:41 26.01204 119.41321 36254 ft 476 kts 221°
2026-05-08 12:42 25.95674 119.37241 36257 ft 480 kts 217°
2026-05-08 12:42 25.92599 119.35670 36202 ft 497 kts 202°
2026-05-08 12:42 25.89143 119.35037 36216 ft 512 kts 188°
2026-05-08 12:43 25.81922 119.35606 36262 ft 519 kts 186°
2026-05-08 12:43 25.78393 119.35270 36197 ft 501 kts 202°
2026-05-08 12:43 25.75242 119.33945 36225 ft 485 kts 214°
2026-05-08 12:44 25.69374 119.30292 36272 ft 482 kts 219°
2026-05-08 12:44 25.64058 119.25903 36260 ft 473 kts 228°
2026-05-08 12:45 25.59328 119.20905 36251 ft 468 kts 231°
2026-05-08 12:45 25.54765 119.15766 36250 ft 468 kts 232°
2026-05-08 12:46 25.50245 119.10565 36243 ft 469 kts 232°
2026-05-08 12:46 25.45751 119.05335 36246 ft 469 kts 232°
2026-05-08 12:47 25.41256 119.00091 36239 ft 469 kts 232°
2026-05-08 12:47 25.36791 118.94878 36239 ft 469 kts 232°
2026-05-08 12:48 25.32342 118.89614 36238 ft 468 kts 233°
2026-05-08 12:48 25.27949 118.84306 36237 ft 468 kts 233°
2026-05-08 12:49 25.23545 118.78995 36225 ft 468 kts 233°
2026-05-08 12:49 25.19147 118.73682 36216 ft 468 kts 233°
2026-05-08 12:50 25.14764 118.68387 36224 ft 467 kts 233°
2026-05-08 12:50 25.10394 118.63123 36213 ft 468 kts 233°
2026-05-08 12:51 25.03613 118.55295 36205 ft 471 kts 231°
2026-05-08 12:52 24.99065 118.50082 36199 ft 471 kts 232°
2026-05-08 12:52 24.92252 118.42260 36193 ft 471 kts 232°
2026-05-08 12:53 24.87708 118.37055 36187 ft 471 kts 232°
2026-05-08 12:53 24.83160 118.31850 36186 ft 472 kts 231°
2026-05-08 12:54 24.78600 118.26637 36178 ft 472 kts 231°
2026-05-08 12:54 24.74066 118.21463 36180 ft 473 kts 231°
2026-05-08 12:55 24.69496 118.16256 36176 ft 473 kts 231°
2026-05-08 12:55 24.64905 118.11058 36175 ft 473 kts 231°
2026-05-08 12:56 24.60323 118.05866 36161 ft 474 kts 231°
2026-05-08 12:56 24.55779 118.00644 36159 ft 472 kts 232°
2026-05-08 12:57 24.51370 117.95305 36158 ft 472 kts 233°
2026-05-08 12:57 24.46953 117.89973 36159 ft 472 kts 233°
2026-05-08 12:58 24.42533 117.84648 36157 ft 472 kts 233°
2026-05-08 12:58 24.38136 117.79344 36148 ft 473 kts 233°
2026-05-08 12:59 24.33710 117.74007 36155 ft 473 kts 233°
2026-05-08 12:59 24.29278 117.68671 36157 ft 473 kts 232°
2026-05-08 13:00 24.24847 117.63346 36156 ft 473 kts 232°
2026-05-08 13:00 24.20412 117.58018 36156 ft 473 kts 232°
2026-05-08 13:01 24.15971 117.52689 36153 ft 475 kts 232°
2026-05-08 13:01 24.11214 117.47627 36159 ft 479 kts 226°
2026-05-08 13:02 24.06229 117.42804 36151 ft 478 kts 227°
2026-05-08 13:02 24.01306 117.37924 36154 ft 478 kts 227°
2026-05-08 13:03 23.96363 117.33060 36155 ft 478 kts 227°
2026-05-08 13:03 23.91402 117.28202 36146 ft 480 kts 226°
2026-05-08 13:04 23.86421 117.23333 36149 ft 480 kts 226°
2026-05-08 13:04 23.81445 117.18469 36138 ft 480 kts 226°
2026-05-08 13:05 23.76519 117.13575 36147 ft 478 kts 229°
2026-05-08 13:05 23.71942 117.08401 36130 ft 476 kts 231°
2026-05-08 13:06 23.67355 117.03177 36136 ft 478 kts 230°
2026-05-08 13:06 23.62736 116.97956 36124 ft 478 kts 231°
2026-05-08 13:07 23.58107 116.92694 36127 ft 478 kts 231°
2026-05-08 13:07 23.53504 116.87462 36129 ft 478 kts 231°
2026-05-08 13:08 23.48932 116.82273 36128 ft 477 kts 231°
2026-05-08 13:08 23.44232 116.77136 36111 ft 482 kts 225°
2026-05-08 13:09 23.38906 116.72640 36118 ft 485 kts 221°
2026-05-08 13:09 23.33573 116.68145 36120 ft 484 kts 223°
2026-05-08 13:10 23.29153 116.64399 36125 ft 485 kts 222°
2026-05-08 13:10 23.23798 116.59936 36119 ft 485 kts 222°
2026-05-08 13:11 23.18426 116.55472 36120 ft 487 kts 221°
2026-05-08 13:11 23.13033 116.51000 36121 ft 487 kts 221°
2026-05-08 13:12 23.07655 116.46547 36122 ft 487 kts 221°
2026-05-08 13:12 23.02262 116.42085 36125 ft 487 kts 221°
2026-05-08 13:13 22.96906 116.37663 36118 ft 487 kts 221°
2026-05-08 13:13 22.91417 116.33329 36117 ft 488 kts 221°
2026-05-08 13:14 22.85999 116.28914 36119 ft 487 kts 222°
2026-05-08 13:14 22.80645 116.24414 36116 ft 487 kts 223°
2026-05-08 13:15 22.75325 116.19884 36118 ft 486 kts 223°
2026-05-08 13:15 22.69964 116.15357 35717 ft 492 kts 221°
2026-05-08 13:16 22.67224 116.13123 35349 ft 493 kts 221°
2026-05-08 13:16 22.64480 116.10897 34993 ft 492 kts 221°
2026-05-08 13:16 22.61743 116.08669 34654 ft 491 kts 221°
2026-05-08 13:16 22.59018 116.06444 34311 ft 490 kts 221°
2026-05-08 13:17 22.56305 116.04229 33966 ft 487 kts 221°
2026-05-08 13:17 22.53612 116.02035 33583 ft 482 kts 221°
2026-05-08 13:17 22.50943 115.99863 33200 ft 479 kts 221°
2026-05-08 13:17 22.48284 115.97700 32826 ft 476 kts 221°
2026-05-08 13:18 22.45650 115.95558 32442 ft 473 kts 220°
2026-05-08 13:18 22.42980 115.93382 32092 ft 490 kts 220°
2026-05-08 13:18 22.40222 115.91129 31718 ft 503 kts 220°
2026-05-08 13:18 22.37419 115.88850 31345 ft 506 kts 220°
2026-05-08 13:19 22.34681 115.86455 30983 ft 503 kts 227°
2026-05-08 13:19 22.32515 115.83533 30575 ft 496 kts 243°
2026-05-08 13:19 22.31217 115.80129 30206 ft 490 kts 257°
2026-05-08 13:19 22.30562 115.76539 29872 ft 485 kts 262°
2026-05-08 13:20 22.30105 115.72975 29452 ft 484 kts 263°
2026-05-08 13:20 22.29683 115.69377 28940 ft 481 kts 264°
2026-05-08 13:20 22.29322 115.65814 28432 ft 476 kts 265°
2026-05-08 13:20 22.29049 115.62262 27929 ft 473 kts 267°
2026-05-08 13:21 22.28848 115.58732 27438 ft 469 kts 268°
2026-05-08 13:21 22.28684 115.55229 26952 ft 466 kts 268°
2026-05-08 13:21 22.28532 115.51737 26465 ft 463 kts 268°
2026-05-08 13:21 22.28384 115.48271 26005 ft 461 kts 268°
2026-05-08 13:22 22.28241 115.44822 25535 ft 458 kts 269°
2026-05-08 13:22 22.28103 115.41399 25081 ft 455 kts 269°
2026-05-08 13:22 22.27968 115.38003 24634 ft 452 kts 269°
2026-05-08 13:22 22.27836 115.34617 24302 ft 448 kts 269°
2026-05-08 13:23 22.27705 115.31250 23940 ft 451 kts 269°
2026-05-08 13:23 22.27572 115.27858 23447 ft 451 kts 269°
2026-05-08 13:23 22.27440 115.24487 22914 ft 448 kts 269°
2026-05-08 13:23 22.27310 115.21137 22408 ft 445 kts 269°
2026-05-08 13:24 22.27178 115.17801 21907 ft 442 kts 268°
2026-05-08 13:24 22.26934 115.14509 21417 ft 439 kts 263°
2026-05-08 13:24 22.26436 115.11315 20939 ft 436 kts 259°
2026-05-08 13:24 22.25805 115.08079 20459 ft 433 kts 258°
2026-05-08 13:25 22.25211 115.04946 20000 ft 429 kts 259°
2026-05-08 13:25 22.24664 115.01790 19538 ft 426 kts 260°
2026-05-08 13:25 22.24139 114.98650 19097 ft 423 kts 260°
2026-05-08 13:25 22.23612 114.95535 18643 ft 420 kts 261°
2026-05-08 13:26 22.23274 114.92417 18183 ft 417 kts 266°
2026-05-08 13:26 22.23212 114.89302 17680 ft 414 kts 270°
2026-05-08 13:26 22.23221 114.86207 17177 ft 411 kts 269°
2026-05-08 13:26 22.23181 114.83129 16684 ft 408 kts 268°
2026-05-08 13:27 22.23095 114.80074 16194 ft 406 kts 268°
2026-05-08 13:27 22.23010 114.77040 15733 ft 403 kts 269°
2026-05-08 13:27 22.22952 114.74031 15246 ft 401 kts 269°
2026-05-08 13:27 22.22917 114.71070 14792 ft 398 kts 270°
2026-05-08 13:28 22.22887 114.68090 14324 ft 393 kts 270°
2026-05-08 13:28 22.22855 114.65192 13946 ft 377 kts 270°
2026-05-08 13:28 22.22818 114.62421 13668 ft 360 kts 270°
2026-05-08 13:28 22.22783 114.59775 13364 ft 346 kts 270°
2026-05-08 13:29 22.22751 114.57224 13071 ft 334 kts 270°
2026-05-08 13:29 22.22720 114.54764 12816 ft 322 kts 270°
2026-05-08 13:29 22.22687 114.52380 12578 ft 313 kts 270°
2026-05-08 13:29 22.22651 114.50056 12328 ft 305 kts 270°
2026-05-08 13:30 22.22617 114.47795 12080 ft 298 kts 270°
2026-05-08 13:30 22.22586 114.45570 11839 ft 295 kts 270°
2026-05-08 13:30 22.22557 114.43343 11607 ft 298 kts 270°
2026-05-08 13:30 22.22528 114.41109 11367 ft 298 kts 270°
2026-05-08 13:31 22.22498 114.38871 11129 ft 297 kts 270°
2026-05-08 13:31 22.22467 114.36647 10890 ft 297 kts 270°
2026-05-08 13:31 22.22436 114.34421 10662 ft 296 kts 270°
2026-05-08 13:31 22.22405 114.32199 10425 ft 296 kts 270°
2026-05-08 13:32 22.22374 114.29984 10193 ft 295 kts 270°
2026-05-08 13:32 22.22342 114.27772 9960 ft 294 kts 270°
2026-05-08 13:32 22.22319 114.25574 9721 ft 293 kts 271°
2026-05-08 13:32 22.22386 114.23379 9479 ft 292 kts 273°
2026-05-08 13:33 22.22460 114.21188 9213 ft 291 kts 271°
2026-05-08 13:33 22.22464 114.19010 8969 ft 290 kts 269°
2026-05-08 13:33 22.22403 114.16865 8726 ft 289 kts 268°
2026-05-08 13:33 22.22308 114.14676 8475 ft 288 kts 268°
2026-05-08 13:34 22.22212 114.12516 8229 ft 287 kts 268°
2026-05-08 13:34 22.22135 114.10398 8089 ft 286 kts 269°
2026-05-08 13:34 22.22080 114.08258 8035 ft 285 kts 269°
2026-05-08 13:34 22.22037 114.06114 8008 ft 286 kts 269°
2026-05-08 13:35 22.21983 114.03971 8006 ft 285 kts 268°
2026-05-08 13:35 22.21910 114.01823 7871 ft 289 kts 268°
2026-05-08 13:35 22.21836 113.99661 7523 ft 289 kts 268°
2026-05-08 13:35 22.21755 113.97495 7154 ft 288 kts 268°
2026-05-08 13:36 22.21675 113.95345 6841 ft 286 kts 268°
2026-05-08 13:36 22.21599 113.93224 6490 ft 274 kts 268°
2026-05-08 13:36 22.21552 113.91241 6140 ft 253 kts 276°
2026-05-08 13:36 22.22061 113.89491 5789 ft 244 kts 305°
2026-05-08 13:37 22.23150 113.88422 5843 ft 229 kts 332°
2026-05-08 13:37 22.24710 113.88021 5539 ft 235 kts
2026-05-08 13:37 22.26258 113.88510 5184 ft 233 kts 28°
2026-05-08 13:37 22.27601 113.89483 4858 ft 231 kts 38°
2026-05-08 13:38 22.28833 113.90567 4673 ft 226 kts 41°
2026-05-08 13:38 22.30005 113.91654 4588 ft 215 kts 41°
2026-05-08 13:38 22.31095 113.92681 4570 ft 203 kts 41°
2026-05-08 13:38 22.32142 113.93680 4429 ft 199 kts 45°
2026-05-08 13:39 22.32778 113.94978 4201 ft 199 kts 81°
2026-05-08 13:39 22.32621 113.96450 4045 ft 198 kts 103°
2026-05-08 13:39 22.32387 113.97911 3856 ft 197 kts 95°
2026-05-08 13:39 22.32362 113.99397 3636 ft 198 kts 88°
2026-05-08 13:40 22.32424 114.00888 3391 ft 200 kts 86°
2026-05-08 13:40 22.32502 114.02389 3115 ft 202 kts 86°
2026-05-08 13:40 22.32577 114.03909 2849 ft 204 kts 86°
2026-05-08 13:40 22.32647 114.05444 2583 ft 205 kts 86°
2026-05-08 13:41 22.32717 114.06981 2306 ft 204 kts 86°
2026-05-08 13:41 22.32784 114.08455 2019 ft 192 kts 86°
2026-05-08 13:41 22.32847 114.09829 1859 ft 175 kts 86°
2026-05-08 13:41 22.32905 114.11096 1745 ft 165 kts 85°
2026-05-08 13:42 22.32961 114.12321 1431 ft 163 kts 85°
2026-05-08 13:42 22.33018 114.13576 1137 ft 169 kts 85°
2026-05-08 13:42 22.33088 114.14833 880 ft 167 kts 84°
2026-05-08 13:42 22.33192 114.16088 660 ft 169 kts 83°
2026-05-08 13:43 22.33323 114.17358 522 ft 171 kts 83°
2026-05-08 13:43 22.33123 114.18616 370 ft 179 kts 121°
2026-05-08 13:43 22.32223 114.19594 71 ft 182 kts 135°
2026-05-08 13:43 22.31418 114.20483 39 ft 127 kts 131°
2026-05-08 13:44 22.31040 114.20917 40 ft 59 kts 133°
2026-05-08 13:44 22.30965 114.21067 40 ft 10 kts 53°
2026-05-08 13:44 22.30998 114.21094 40 ft 5 kts
2026-05-08 13:44 22.31042 114.21071 40 ft 9 kts 318°
2026-05-08 13:45 22.31093 114.21015 38 ft 12 kts 314°
2026-05-08 13:45 22.31160 114.20941 40 ft 16 kts 314°
2026-05-08 13:45 22.31242 114.20848 39 ft 18 kts 314°
2026-05-08 13:45 22.31336 114.20744 38 ft 20 kts 314°
2026-05-08 13:46 22.31438 114.20629 39 ft 22 kts 314°
2026-05-08 13:46 22.31549 114.20505 41 ft 24 kts 314°
2026-05-08 13:46 22.31667 114.20373 41 ft 25 kts 314°
2026-05-08 13:46 22.31792 114.20232 41 ft 27 kts 313°
2026-05-08 13:47 22.31924 114.20087 41 ft 28 kts 314°
2026-05-08 13:47 22.32059 114.19934 40 ft 29 kts 314°
2026-05-08 13:47 22.32200 114.19777 39 ft 29 kts 314°
2026-05-08 13:47 22.32338 114.19629 41 ft 27 kts 318°
2026-05-08 13:48 22.32465 114.19506 40 ft 24 kts 313°
2026-05-08 13:48 22.32543 114.19425 41 ft 10 kts 316°
2026-05-08 13:48 22.32600 114.19414 41 ft 9 kts 29°
2026-05-08 13:48 22.32642 114.19451 41 ft 5 kts 27°
2026-05-08 13:49 22.32674 114.19436 41 ft 5 kts 316°
2026-05-08 13:49 22.32694 114.19414 40 ft 4 kts 314°
2026-05-08 13:49 22.32705 114.19402 41 ft 2 kts 314°
2026-05-08 13:49 22.32706 114.19401 41 ft 0 kts 314°